Regional Weather Roundup
Issued by NWS

Home | Current Version | Previous Version | Graphics & Text | Print | Product List | Glossary On
Versions: 1 2 3 4 5 6 7 8 9 10 11 12 13 14 15 16 17 18 19 20 21 22 23 24 25 26 27 28 29 30 31 32 33 34 35 36 37 38 39 40 41 42 43 44 45 46 47 48 49 50
502
ASUS44 KMEG 040300
RWRTN
TENNESSEE HOURLY STATE WEATHER ROUNDUP
NATIONAL WEATHER SERVICE MEMPHIS TN
900 PM CST SAT DEC 03 2016

TNZ002-004-019-021-049-052-054-088>092-040400-
WEST TENNESSEE

CITY           SKY/WX    TMP DP  RH WIND       PRES   REMARKS
MEMPHIS INTL   LGT RAIN  43  41  93 E10       30.17S
NWS MEMPHIS      N/A     42 N/A N/A MISG        N/A
JACKSON        LGT RAIN  41 N/A N/A E5        30.21F
DYERSBURG      CLOUDY   N/A N/A N/A E8        30.21F
UNION CITY     CLOUDY    37  37 100 CALM      30.22F
PARIS          CLOUDY    36  34  93 E6        30.23F WCI  31
$$

TNZ008-025-027-028-033-062-065-066-040400-
NORTH MIDDLE TENNESSEE

CITY           SKY/WX    TMP DP  RH WIND       PRES   REMARKS
NASHVILLE      LGT RAIN  41  36  82 NE5       30.27F
CLARKSVILLE    CLOUDY    41  32  70 E6        30.27F
SMYRNA         LGT RAIN  40  37  89 NE6       30.27F
CROSSVILLE     LGT RAIN  38  34  85 CALM      30.23F
$$

TNZ061-075-076-078-094-096-097-040400-
SOUTH MIDDLE TENNESSEE

CITY           SKY/WX    TMP DP  RH WIND       PRES   REMARKS
TULLAHOMA      CLOUDY    37  37 100 NE5       30.22S WCI  34
$$

TNZ017-018-042-046-047-040400-
NORTHEAST TENNESSEE

CITY           SKY/WX    TMP DP  RH WIND       PRES   REMARKS
TRI CITIES     CLOUDY    39  31  72 CALM      30.25S
$$

TNZ012-013-036-069-073-074-040400-
CENTRAL EAST TENNESSEE

CITY           SKY/WX    TMP DP  RH WIND       PRES   REMARKS
KNOXVILLE      LGT RAIN  42  35  76 NE6       30.25S
OAK RIDGE      LGT RAIN  43  34  70 CALM      30.28S
GATLINBURG     MOCLDY    39  30  70 CALM      30.25S
$$

TNZ083-085-099-040400-
SOUTHEAST TENNESSEE

CITY           SKY/WX    TMP DP  RH WIND       PRES   REMARKS
CHATTANOOGA    CLOUDY    44  36  73 N9        30.23F
$$

SKY/WX REPORTED AS FAIR MEANS FEW OR NO CLOUDS BELOW
12 THOUSAND FEET.





USA.gov is the U.S. government's official web portal to all federal, state and local government web resources and services.